Location: Mococo
(38.0255°N, 122.1161°W)
Time: 00:56:29
(UTC+00:00)

Meteor 2-21 Rocket - Pass Details

Date: 13 February 2026
Orbit: 935 x 968 km, 82.6° (Epoch: 9 March)

Event Time Altitude Azimuth Distance (km) Brightness Sun altitude
Rises 12:45:41 0° 350° (N) 3,635 7.4 -27.1°
Reaches altitude 10° 12:48:12 10° 349° (NNW) 2,681 6.7 -26.6°
Maximum altitude 12:54:17 73° 266° (W) 988 4.3 -25.4°
Drops below altitude 10° 13:00:18 10° 182° (S) 2,644 6.7 -24.3°
Sets 13:02:46 0° 181° (S) 3,581 7.4 -23.8°
